[[{"header":{"parameterUnit":"m.s-1","parameterCategory":1,"la1":30.2991,"la2":30.254,"lo1":-89.0895,"lo2":-89.0444,"dy":0.0017,"dx":0.0017,"nx":28,"ny":28,"refTime":"2025-04-21T21:00:00:Z","depth":0,"parameterNumber":2,"parameterNumberName":"U-component_of_WINDS"},"data":[0,0,0,0,0,0,0,0,0,0,0,0,0,0,0,0,0,0,0,0,0,0,0,0,0,0,0,0,0,0,0,0,0,0,0,0,0,0,0,0,0,0,0,0,0,0,0,0,0,0,0,0,0,0,0,0,0,0,-2.6011,-2.6012,0,-2.6084,-2.6085,-2.6086,-2.6095,-2.6094,-2.6094,-2.6093,-2.6164,-2.6167,-2.6169,0,0,0,0,0,0,0,0,0,0,0,0,0,-2.5877,-2.5879,-2.6011,-2.6012,-2.6013,-2.6084,-2.6085,-2.6086,-2.6095,-2.6094,-2.6093,-2.6093,-2.6164,-2.6167,-2.617,0,0,0,0,0,0,0,0,0,0,0,0,0,-2.5941,-2.588,-2.6011,-2.6026,-2.6028,-2.6084,-2.6085,-2.6086,-2.6095,-2.6094,-2.6093,-2.6092,-2.6163,-2.6166,-2.617,-2.6214,0,0,-2.6182,-2.6183,0,0,0,0,0,0,0,0,-2.5937,-2.5946,-2.6023,-2.6025,-2.6028,-2.6079,-2.6064,-2.6129,-2.6096,-2.607,-2.6093,-2.6092,-2.6137,-2.6143,-2.6158,-2.6218,-2.6221,-2.6182,-2.6184,-2.6186,-2.6187,0,0,0,0,0,0,0,-2.5933,-2.5943,-2.604,-2.6024,-2.6027,-2.6028,-2.6036,-2.6076,-2.6108,-2.6072,-2.6073,-2.6081,-2.6138,-2.6155,-2.616,-2.6222,-2.6182,-2.6185,-2.6188,-2.6189,-2.6321,-2.6323,0,0,0,0,0,0,-2.5926,-2.5939,-2.6037,-2.6042,-2.5979,-2.6032,-2.6041,-2.6064,-2.6108,-2.6113,-2.6082,-2.6082,-2.6149,-2.6156,-2.6163,-2.6217,-2.6186,-2.619,-2.6192,-2.632,-2.6322,-2.6323,0,0,0,0,0,0,-2.5923,-2.5935,-2.6034,-2.5991,-2.6004,-2.6035,-2.6061,-2.6066,-2.6083,-2.6116,-2.6121,-2.6094,-2.6148,-2.6157,-2.6202,-2.622,-2.6191,-2.6195,-2.6319,-2.6321,-2.6322,-2.6327,0,0,0,0,0,0,-2.5919,-2.5933,-2.5951,-2.5991,-2.6006,-2.6073,-2.6062,-2.6068,-2.609,-2.609,-2.6128,-2.6133,-2.6148,-2.6196,-2.6206,-2.6225,-2.6198,-2.6317,-2.632,-2.6322,-2.6325,-2.6329,-2.6332,0,0,0,0,0,-2.5914,-2.5949,-2.5952,-2.5964,-2.6029,-2.6074,-2.6082,-2.61,-2.6091,-2.6109,-2.613,-2.6132,-2.6217,-2.6201,-2.6211,-2.6232,-2.6316,-2.6319,-2.6322,-2.6324,-2.6328,-2.6332,0,0,0,0,0,0,-2.5908,-2.5954,-2.5958,-2.6007,-2.6037,-2.6075,-2.6098,-2.6104,-2.6135,-2.6134,-2.6153,-2.6162,-2.6205,-2.6223,-2.6204,-2.6277,-2.6266,-2.6271,-2.6264,-2.6268,-2.6271,-2.6265,-2.6201,0,0,0,0,0,-2.5913,-2.5947,-2.5985,-2.6024,-2.6039,-2.6066,-2.6086,-2.6098,-2.6129,-2.6141,-2.6165,-2.6194,-2.6228,-2.6249,-2.6281,-2.6329,-2.6337,-2.6348,-2.6351,-2.6354,-2.6357,-2.6383,-2.6389,-2.6332,-2.6332,-2.6332,0,0,-2.5922,-2.5952,-2.5971,-2.6024,-2.6048,-2.6082,-2.6076,-2.6112,-2.6137,-2.6146,-2.6189,-2.6209,-2.6242,-2.6288,-2.631,-2.6305,-2.6375,-2.6357,-2.6359,-2.6361,-2.6387,-2.6392,-2.6397,-2.6334,-2.6334,-2.6333,0,0,-2.5956,-2.5982,-2.6018,-2.6043,-2.6081,-2.6099,-2.6107,-2.6146,-2.6159,-2.6204,-2.6211,-2.6241,-2.6298,-2.6322,-2.6341,-2.6386,-2.6389,-2.6396,-2.6412,-2.6437,-2.6442,-2.6446,-2.6461,-2.6466,-2.64,-2.64,-2.64,0,-2.5962,-2.6015,-2.6035,-2.6071,-2.6093,-2.6105,-2.614,-2.6163,-2.6209,-2.6224,-2.6218,-2.6291,-2.6314,-2.6366,-2.6377,-2.6393,-2.6403,-2.6391,-2.644,-2.6444,-2.6448,-2.6463,-2.6468,-2.6401,-2.6401,-2.6401,-2.6401,0,-2.602,-2.6056,-2.6081,-2.6126,-2.6151,-2.6187,-2.6212,-2.6235,-2.6245,-2.6263,-2.6308,-2.6337,-2.6376,-2.6389,-2.6398,-2.6443,-2.6438,-2.6436,-2.6424,-2.6454,-2.6468,-2.6473,-2.6402,-2.6401,-2.6401,-2.6401,0,0,-2.605,-2.6108,-2.6117,-2.6137,-2.6181,-2.6208,-2.6245,-2.6284,-2.6303,-2.6335,-2.6365,-2.6414,-2.6412,-2.6435,-2.6447,-2.6469,-2.6502,-2.6464,-2.6465,-2.6469,-2.6552,-2.6552,-2.6558,-2.6505,-2.6506,-2.6507,-2.6548,0,-2.6089,-2.6154,-2.6174,-2.6229,-2.6262,-2.6275,-2.6306,-2.6335,-2.6354,-2.6385,-2.6405,-2.6439,-2.6435,-2.6449,-2.6472,-2.6493,-2.6518,-2.6491,-2.6532,-2.6533,-2.6521,-2.6566,-2.6566,-2.6603,-2.6554,-2.6555,-2.6556,0,-2.6141,-2.6175,-2.6234,-2.6273,-2.6288,-2.6316,-2.6354,-2.6383,-2.6417,-2.6429,-2.6455,-2.6465,-2.6503,-2.6491,-2.6542,-2.6523,-2.6541,-2.6555,-2.6557,-2.656,-2.6545,-2.6568,-2.6616,-2.6621,-2.6565,-2.6564,-2.6563,0,-2.6156,-2.6217,-2.626,-2.6277,-2.6325,-2.6344,-2.6365,-2.6398,-2.642,-2.6453,-2.6468,-2.6504,-2.6524,-2.6551,-2.6571,-2.6561,-2.6621,-2.661,-2.6631,-2.663,-2.6641,-2.664,-2.6691,-2.6656,-2.6656,-2.6656,-2.6655,0,-2.6196,-2.6231,-2.6267,-2.6293,-2.6333,-2.6356,-2.6394,-2.6415,-2.6444,-2.6474,-2.6487,-2.6514,-2.654,-2.657,-2.6586,-2.6626,-2.6635,-2.6645,-2.6649,-2.6643,-2.6642,-2.6654,-2.6651,-2.6657,-2.6657,-2.6656,-2.6656,0,-2.6218,-2.6244,-2.6292,-2.6334,-2.6345,-2.6372,-2.6407,-2.6433,-2.6453,-2.649,-2.6501,-2.6531,-2.6569,-2.6592,-2.6638,-2.6649,-2.6693,-2.6696,-2.6681,-2.6683,-2.6701,-2.6699,-2.676,-2.6769,-2.673,-2.673,-2.673,0,-2.6241,-2.6269,-2.6314,-2.6336,-2.6357,-2.6391,-2.6414,-2.6438,-2.6462,-2.6503,-2.6523,-2.6562,-2.6593,-2.6652,-2.6678,-2.6714,-2.6717,-2.6736,-2.6722,-2.6716,-2.6716,-2.6713,-2.6716,-2.6738,-2.6738,-2.6738,-2.6739,0,-2.6279,-2.6291,-2.6324,-2.6363,-2.6391,-2.6423,-2.6454,-2.647,-2.6499,-2.6525,-2.6564,-2.6589,-2.6637,-2.6675,-2.6713,-2.6733,-2.674,-2.6743,-2.675,-2.6743,-2.6733,-2.6738,-2.6686,-2.6741,-2.6741,-2.6741,-2.6741,-2.674,-2.6301,-2.6326,-2.6362,-2.64,-2.6426,-2.6455,-2.6481,-2.6505,-2.6539,-2.658,-2.6593,-2.6633,-2.6666,-2.6719,-2.674,-2.6771,-2.6769,-2.6778,-2.678,-2.6782,-2.6782,-2.673,-2.6779,-2.6779,-2.6778,-2.6778,-2.6778,0,-2.6339,-2.6363,-2.6397,-2.6441,-2.6471,-2.6477,-2.6512,-2.6536,-2.6571,-2.6603,-2.6634,-2.6678,-2.6715,-2.6745,-2.6783,-2.6802,-2.6806,-2.6811,-2.6809,-2.6813,-2.6782,-2.6773,-2.6807,-2.6807,-2.6807,-2.6807,-2.6807,-2.6807,-2.6361,-2.6404,-2.642,-2.6476,-2.6499,-2.654,-2.6559,-2.6586,-2.6611,-2.6661,-2.6692,-2.6711,-2.6742,-2.6782,-2.6816,-2.6824,-2.6836,-2.684,-2.6848,-2.6818,-2.6815,-2.6812,-2.6803,-2.6843,-2.6843,-2.6876,-2.6877,-2.6877]},{"header":{"parameterUnit":"m.s-1","parameterCategory":1,"la1":30.2991,"la2":30.254,"lo1":-89.0895,"lo2":-89.0444,"dy":0.0017,"dx":0.0017,"nx":28,"ny":28,"refTime":"2025-04-21T21:00:00:Z","depth":0,"parameterNumber":3,"parameterNumberName":"V-component_of_WINDS"},"data":[0,0,0,0,0,0,0,0,0,0,0,0,0,0,0,0,0,0,0,0,0,0,0,0,0,0,0,0,0,0,0,0,0,0,0,0,0,0,0,0,0,0,0,0,0,0,0,0,0,0,0,0,0,0,0,0,0,0,3.2138,3.2139,0,3.219,3.219,3.2191,3.2172,3.217,3.2169,3.2168,3.2219,3.2221,3.2224,0,0,0,0,0,0,0,0,0,0,0,0,0,3.2023,3.2025,3.2138,3.2139,3.2139,3.219,3.219,3.2191,3.2172,3.217,3.2169,3.2168,3.2218,3.2221,3.2224,0,0,0,0,0,0,0,0,0,0,0,0,0,3.2074,3.2026,3.2138,3.2136,3.2136,3.219,3.219,3.2191,3.2172,3.217,3.2169,3.2167,3.2217,3.2221,3.2225,3.2282,0,0,3.2236,3.2237,0,0,0,0,0,0,0,0,3.2071,3.2078,3.2136,3.2136,3.2137,3.2172,3.2169,3.2222,3.2173,3.2158,3.2168,3.2166,3.2205,3.2209,3.2223,3.2285,3.2287,3.2236,3.2238,3.224,3.2241,0,0,0,0,0,0,0,3.2067,3.2076,3.2159,3.2136,3.2137,3.2132,3.2138,3.2179,3.2191,3.2159,3.2158,3.2165,3.2205,3.2219,3.2224,3.2288,3.2236,3.2239,3.2242,3.2243,3.2402,3.2404,0,0,0,0,0,0,3.2064,3.2073,3.2157,3.216,3.2099,3.2136,3.2142,3.2163,3.219,3.2193,3.2166,3.2164,3.2214,3.222,3.2226,3.2297,3.224,3.2243,3.2245,3.24,3.2403,3.2405,0,0,0,0,0,0,3.2061,3.2071,3.2155,3.2116,3.2126,3.214,3.2163,3.2165,3.2179,3.2195,3.2197,3.2179,3.2213,3.2221,3.2269,3.2298,3.2245,3.2248,3.2398,3.2401,3.2404,3.2439,0,0,0,0,0,0,3.2058,3.2071,3.2093,3.2117,3.2129,3.2197,3.2165,3.2167,3.2186,3.2183,3.2208,3.221,3.2212,3.2264,3.2273,3.2302,3.2251,3.2395,3.2399,3.2403,3.2435,3.2442,3.2449,0,0,0,0,0,3.2054,3.2099,3.2094,3.2104,3.2156,3.2199,3.2206,3.2207,3.2188,3.2211,3.2222,3.2209,3.2294,3.2269,3.2279,3.231,3.2394,3.2398,3.2403,3.2432,3.2441,3.2449,0,0,0,0,0,0,3.2077,3.2102,3.2096,3.2151,3.2173,3.2196,3.2224,3.2217,3.2244,3.224,3.2241,3.2247,3.2297,3.2308,3.228,3.2369,3.2341,3.2348,3.2359,3.2368,3.2375,3.2371,3.2254,0,0,0,0,0,3.2088,3.2121,3.2142,3.2188,3.2199,3.221,3.2228,3.2228,3.2251,3.226,3.2274,3.2296,3.2328,3.2349,3.2379,3.2437,3.2443,3.2463,3.247,3.2476,3.2482,3.2515,3.2525,3.242,3.242,3.242,0,0,3.2112,3.213,3.215,3.2193,3.221,3.2244,3.2218,3.2254,3.228,3.2265,3.2313,3.2324,3.2349,3.2403,3.2428,3.2414,3.2512,3.2482,3.2486,3.2489,3.2521,3.2531,3.254,3.2423,3.2423,3.2422,0,0,3.2173,3.2189,3.2231,3.2249,3.2276,3.2283,3.2293,3.2318,3.2325,3.2373,3.2363,3.2394,3.2448,3.2467,3.2484,3.2555,3.2546,3.2565,3.2601,3.2634,3.2642,3.265,3.2676,3.2686,3.2571,3.2571,3.2571,0,3.2198,3.225,3.2252,3.2291,3.2311,3.2301,3.2343,3.236,3.2395,3.2409,3.2394,3.2464,3.2479,3.2539,3.2557,3.257,3.2582,3.2562,3.2641,3.2648,3.2655,3.2681,3.2691,3.2573,3.2573,3.2573,3.2572,0,3.2281,3.2317,3.2347,3.2383,3.2406,3.2446,3.2455,3.2478,3.2477,3.2486,3.2536,3.2555,3.259,3.2604,3.2602,3.2664,3.2655,3.264,3.2612,3.2668,3.2691,3.2701,3.2576,3.2576,3.2575,3.2574,0,0,3.2355,3.2394,3.2405,3.2422,3.2453,3.2481,3.2521,3.2557,3.2577,3.2602,3.2637,3.2684,3.2672,3.2691,3.2692,3.272,3.2778,3.2702,3.2703,3.2716,3.2849,3.286,3.2871,3.2772,3.2774,3.2775,3.2847,0,3.2419,3.2491,3.2495,3.256,3.2595,3.2587,3.2622,3.2645,3.2656,3.2686,3.2697,3.2732,3.2712,3.2724,3.2752,3.2765,3.2804,3.276,3.2804,3.2806,3.2798,3.2883,3.2894,3.2961,3.2856,3.2858,3.2859,0,3.2502,3.2532,3.2601,3.2629,3.2643,3.2675,3.2709,3.2738,3.2765,3.2771,3.2794,3.2791,3.2833,3.2805,3.2864,3.2833,3.2852,3.2862,3.2864,3.2868,3.2835,3.289,3.2982,3.2992,3.2873,3.2872,3.2871,0,3.2551,3.2608,3.2657,3.2672,3.2706,3.2729,3.2743,3.2768,3.279,3.282,3.2834,3.2868,3.2887,3.2913,3.292,3.2898,3.298,3.2951,3.2986,3.2986,3.3003,3.3002,3.31,3.3015,3.3015,3.3015,3.3015,0,3.2622,3.2664,3.268,3.271,3.2758,3.2764,3.2811,3.2825,3.2848,3.2881,3.2876,3.2907,3.2914,3.2947,3.2953,3.3002,3.301,3.3017,3.3018,3.3017,3.3016,3.3029,3.3025,3.3017,3.3017,3.3016,3.3016,0,3.2684,3.2696,3.2749,3.2777,3.2786,3.282,3.2844,3.2874,3.2884,3.2927,3.2937,3.2953,3.2992,3.3002,3.3048,3.3052,3.311,3.3107,3.3102,3.3102,3.3136,3.3133,3.3246,3.3262,3.3166,3.3167,3.3168,0,3.2728,3.2761,3.2794,3.2816,3.2833,3.2868,3.2891,3.2899,3.2923,3.2957,3.2983,3.3021,3.3052,3.3115,3.3131,3.3167,3.3164,3.3202,3.317,3.3169,3.3166,3.3164,3.3168,3.3207,3.3208,3.3209,3.321,0,3.2806,3.2811,3.2844,3.2881,3.2908,3.2937,3.2964,3.2983,3.2994,3.3022,3.3062,3.3086,3.3135,3.3173,3.321,3.3226,3.322,3.322,3.323,3.323,3.3226,3.323,3.3119,3.3217,3.3217,3.3216,3.3216,3.3215,3.2861,3.2891,3.2919,3.2957,3.2979,3.3005,3.3035,3.3051,3.3084,3.3125,3.3127,3.3172,3.3199,3.3248,3.3266,3.3301,3.329,3.3305,3.3308,3.3312,3.3315,3.3221,3.3308,3.3308,3.3308,3.3307,3.3307,0,3.294,3.2958,3.2993,3.3033,3.3063,3.3056,3.3087,3.3113,3.3152,3.3179,3.321,3.3258,3.3296,3.3316,3.3355,3.3379,3.3378,3.3389,3.3387,3.3391,3.3323,3.331,3.3389,3.3389,3.3389,3.3389,3.3389,3.3389,3.2984,3.3034,3.3043,3.3105,3.3123,3.3167,3.3186,3.3211,3.3232,3.3286,3.3318,3.3331,3.3356,3.3397,3.3432,3.3437,3.3452,3.3464,3.3468,3.3404,3.3396,3.3388,3.3376,3.3467,3.3468,3.3534,3.3534,3.3535]}]]